Location: Sternwarte ZA, Rosenfeld-Brittheim
(48.2889°N, 8.6789°E)
Time: 16:28:03
(UTC+02:00)

ISS - Pass Details

Date: 23 May 2018
Orbit: 402 x 406 km, 51.6° (Epoch: 19 June)

Event Time Altitude Azimuth Distance (km) Brightness Sun altitude
Rises 03:45:03 0° 290° (WNW) 2,321 -0.1 -14.1°
Reaches altitude 10° 03:47:13 10° 282° (WNW) 1,459 -1.2 -13.9°
Maximum altitude 03:50:15 36° 214° (SW) 660 -3.3 -13.6°
Drops below altitude 10° 03:53:16 10° 146° (SE) 1,451 -1.2 -13.3°
Sets 03:55:26 0° 137° (SE) 2,307 -0.1 -13.1°
